QPF
0.01 0.01 0.00 0.00 0.00 0.00 0.00 0.00 0.00 0.00 0.00 0.00 0.00 0.00 0.00 0.01 0.01 0.00 0.00 0.00 0.00 0.00 0.00 0.00 0.00 0.00 0.00 0.00 0.00 0.00 0.00 0.00 0.00 0.00 0.01 0.01 0.01 0.02
0.01 0.01 0.01 0.00 0.00 0.01 0.00 0.00 0.00 0.00 0.00 0.00 0.00 0.00 0.00 0.00 0.00 0.00 0.01 0.01 0.01 0.00 0.00 0.00 0.00 0.00 0.00 0.00 0.00 0.00 0.00 0.00 0.00 0.00 0.00 0.00 0.00 0.00
0.01 0.01 0.01 0.01 0.01 0.01 0.01 0.00 0.00 0.00 0.00 0.00 0.00 0.00 0.00 0.00 0.00 0.00 0.00 0.00 0.00 0.01 0.01 0.01 0.00 0.00 0.00 0.00 0.00 0.00 0.00 0.00 0.00 0.00 0.00 0.00 0.00 0.00
0.02 0.02 0.02 0.01 0.01 0.01 0.01 0.01 0.00 0.00 0.00 0.00 0.00 0.00 0.00 0.00 0.00 0.00 0.00 0.00 0.01 0.01 0.01 0.00 0.00 0.00 0.01 0.01 0.00 0.00 0.00 0.00 0.00 0.00 0.00 0.00 0.00 0.00
0.02 0.02 0.02 0.02 0.01 0.01 0.00 0.00 0.00 0.00 0.00 0.00 0.00 0.00 0.00 0.00 0.00 0.00 0.00 0.00 0.00 0.00 0.01 0.01 0.01 0.01 0.01 0.01 0.01 0.01 0.01 0.01 0.01 0.00 0.00 0.00 0.00 0.00
0.02 0.02 0.02 0.02 0.02 0.02 0.02 0.01 0.01 0.01 0.01 0.00 0.00 0.00 0.00 0.00 0.00 0.00 0.00 0.00 0.01 0.00 0.01 0.01 0.00 0.00 0.00 0.00 0.01 0.01 0.01 0.01 0.00 0.00 0.00 0.00 0.00 0.00
0.03 0.02 0.02 0.01 0.02 0.02 0.02 0.02 0.02 0.02 0.01 0.01 0.01 0.01 0.01 0.01 0.01 0.00 0.00 0.00 0.00 0.00 0.00 0.00 0.00 0.00 0.00 0.01 0.01 0.01 0.01 0.01 0.01 0.01 0.01 0.01 0.01 0.00
0.04 0.03 0.02 0.02 0.02 0.02 0.02 0.03 0.03 0.03 0.02 0.02 0.01 0.01 0.01 0.01 0.01 0.01 0.01 0.00 0.00 0.00 0.01 0.01 0.01 0.01 0.01 0.01 0.01 0.01 0.01 0.01 0.02 0.02 0.02 0.02 0.02 0.02
0.05 0.04 0.03 0.03 0.03 0.03 0.03 0.03 0.03 0.03 0.02 0.02 0.02 0.02 0.02 0.02 0.02 0.01 0.01 0.01 0.01 0.01 0.01 0.01 0.01 0.01 0.01 0.01 0.01 0.01 0.01 0.02 0.02 0.02 0.03 0.03 0.03 0.03
0.05 0.05 0.05 0.05 0.05 0.04 0.03 0.02 0.02 0.03 0.03 0.03 0.03 0.03 0.03 0.02 0.02 0.01 0.02 0.02 0.02 0.01 0.01 0.01 0.01 0.01 0.01 0.01 0.01 0.01 0.01 0.01 0.01 0.01 0.01 0.02 0.02 0.02
0.08 0.08 0.08 0.07 0.08 0.06 0.04 0.04 0.04 0.04 0.04 0.04 0.03 0.03 0.02 0.02 0.01 0.01 0.01 0.01 0.01 0.01 0.01 0.01 0.01 0.01 0.01 0.01 0.00 0.01 0.01 0.01 0.01 0.01 0.01 0.01 0.01 0.01
0.07 0.07 0.08 0.07 0.08 0.07 0.06 0.04 0.03 0.02 0.02 0.02 0.02 0.02 0.02 0.02 0.02 0.02 0.02 0.02 0.02 0.02 0.01 0.01 0.01 0.01 0.01 0.01 0.01 0.01 0.02 0.02 0.02 0.02 0.02 0.02 0.02 0.02
0.04 0.04 0.05 0.05 0.04 0.04 0.03 0.02 0.03 0.02 0.02 0.02 0.02 0.01 0.01 0.01 0.01 0.01 0.01 0.01 0.01 0.01 0.00 0.00 0.00 0.00 0.00 0.00 0.00 0.00 0.01 0.01 0.01 0.01 0.02 0.03 0.03 0.03
0.02 0.02 0.02 0.02 0.01 0.01 0.01 0.01 0.01 0.00 0.00 0.00 0.00 0.00 0.00 0.00 0.00 0.00 0.00 0.00 0.00 0.00 0.00 0.00 0.00 0.00 0.00 0.00 0.00 0.00 0.00 0.00 0.00 0.00 0.01 0.01 0.02 0.02
0.00 0.00 0.00 0.00 0.00 0.00 0.00 0.00 0.00 0.00 0.00 0.00 0.00 0.00 0.00 0.00 0.00 0.00 0.00 0.00 0.00 0.00 0.00 0.00 0.00 0.00 0.00 0.00 0.00 0.00 0.00 0.00 0.00 0.00 0.00 0.01 0.01 0.01
0.00 0.00 0.00 0.00 0.00 0.00 0.00 0.00 0.00 0.00 0.00 0.00 0.00 0.00 0.00 0.00 0.00 0.00 0.00 0.00 0.00 0.00 0.00 0.00 0.00 0.00 0.00 0.00 0.00 0.00 0.00 0.00 0.00 0.00 0.00 0.00 0.00 0.00
0.01 0.00 0.00 0.00 0.00 0.00 0.00 0.00 0.00 0.00 0.00 0.00 0.00 0.00 0.00 0.01 0.01 0.01 0.00 0.00 0.00 0.00 0.00 0.00 0.00 0.00 0.00 0.00 0.00 0.00 0.00 0.00 0.00 0.00 0.00 0.00 0.00 0.00
0.02 0.02 0.01 0.01 0.01 0.01 0.01 0.01 0.01 0.00 0.00 0.00 0.00 0.00 0.00 0.00 0.00 0.01 0.01 0.01 0.00 0.00 0.00 0.00 0.00 0.00 0.00 0.00 0.00 0.00 0.00 0.00 0.00 0.00 0.00 0.01 0.01 0.00
0.02 0.02 0.02 0.02 0.01 0.01 0.01 0.00 0.00 0.00 0.00 0.00 0.00 0.00 0.00 0.00 0.00 0.00 0.00 0.00 0.00 0.00 0.00 0.00 0.00 0.01 0.01 0.00 0.00 0.00 0.01 0.01 0.01 0.01 0.01 0.01 0.01 0.01
0.01 0.01 0.00 0.00 0.00 0.00 0.00 0.00 0.00 0.00 0.00 0.00 0.00 0.00 0.00 0.00 0.00 0.00 0.00 0.00 0.00 0.00 0.00 0.00 0.00 0.01 0.01 0.01 0.01 0.01 0.01 0.01 0.01 0.02 0.01 0.01 0.02 0.02
0.00 0.00 0.00 0.00 0.00 0.00 0.00 0.00 0.00 0.00 0.00 0.00 0.00 0.00 0.00 0.00 0.00 0.00 0.00 0.00 0.00 0.00 0.00 0.00 0.00 0.01 0.01 0.01 0.01 0.01 0.01 0.02 0.02 0.03 0.04 0.04 0.04 0.04
0.00 0.00 0.00 0.00 0.00 0.00 0.00 0.00 0.00 0.00 0.00 0.00 0.00 0.00 0.00 0.00 0.00 0.00 0.00 0.00 0.00 0.00 0.00 0.00 0.00 0.01 0.01 0.02 0.02 0.02 0.01 0.01 0.02 0.03 0.06 0.08 0.08 0.08
0.00 0.00 0.00 0.00 0.00 0.00 0.00 0.00 0.00 0.00 0.00 0.00 0.00 0.00 0.00 0.00 0.00 0.00 0.00 0.00 0.00 0.00 0.00 0.00 0.00 0.01 0.01 0.01 0.01 0.02 0.02 0.02 0.03 0.03 0.03 0.04 0.06 0.06
MSLP
1019.14 1019.47 1019.81 1020.14 1020.43 1020.66 1020.81 1020.87 1020.84 1020.73 1020.56 1020.33 1020.07 1019.79 1019.51 1019.25 1019.03 1018.84 1018.73 1018.68 1018.71 1018.82 1018.97 1019.16 1019.36 1019.54 1019.67 1019.75 1019.79 1019.78 1019.75 1019.72 1019.71 1019.74 1019.79 1019.88 1019.97 1020.04
1018.95 1019.24 1019.55 1019.84 1020.11 1020.32 1020.48 1020.57 1020.58 1020.53 1020.41 1020.25 1020.03 1019.79 1019.52 1019.25 1019.00 1018.78 1018.62 1018.53 1018.52 1018.59 1018.72 1018.90 1019.08 1019.26 1019.39 1019.46 1019.48 1019.45 1019.39 1019.33 1019.29 1019.29 1019.32 1019.38 1019.46 1019.54
1018.78 1019.04 1019.30 1019.55 1019.78 1019.98 1020.13 1020.23 1020.29 1020.30 1020.26 1020.17 1020.03 1019.85 1019.62 1019.37 1019.11 1018.87 1018.66 1018.52 1018.45 1018.47 1018.55 1018.68 1018.83 1018.97 1019.07 1019.12 1019.12 1019.06 1018.98 1018.89 1018.82 1018.78 1018.78 1018.82 1018.89 1018.95
1018.68 1018.91 1019.13 1019.34 1019.53 1019.70 1019.85 1019.97 1020.06 1020.13 1020.17 1020.16 1020.11 1020.00 1019.83 1019.61 1019.36 1019.10 1018.86 1018.66 1018.52 1018.46 1018.46 1018.52 1018.61 1018.69 1018.75 1018.76 1018.72 1018.64 1018.52 1018.40 1018.30 1018.24 1018.21 1018.22 1018.26 1018.30
1018.71 1018.92 1019.12 1019.30 1019.45 1019.59 1019.72 1019.84 1019.97 1020.08 1020.19 1020.26 1020.29 1020.26 1020.15 1019.98 1019.75 1019.48 1019.20 1018.94 1018.73 1018.57 1018.48 1018.45 1018.45 1018.46 1018.46 1018.42 1018.33 1018.21 1018.07 1017.92 1017.79 1017.69 1017.63 1017.61 1017.62 1017.63
1018.89 1019.11 1019.30 1019.45 1019.58 1019.70 1019.81 1019.93 1020.07 1020.22 1020.37 1020.51 1020.61 1020.64 1020.60 1020.47 1020.26 1019.98 1019.67 1019.35 1019.06 1018.81 1018.63 1018.49 1018.39 1018.32 1018.24 1018.14 1018.01 1017.85 1017.67 1017.50 1017.33 1017.20 1017.10 1017.04 1017.01 1016.98
1019.23 1019.47 1019.66 1019.82 1019.93 1020.03 1020.13 1020.24 1020.38 1020.55 1020.74 1020.92 1021.07 1021.15 1021.16 1021.06 1020.87 1020.59 1020.25 1019.88 1019.52 1019.18 1018.90 1018.66 1018.47 1018.30 1018.15 1017.98 1017.80 1017.60 1017.39 1017.18 1016.98 1016.80 1016.66 1016.55 1016.47 1016.39
1019.69 1019.97 1020.19 1020.36 1020.48 1020.58 1020.67 1020.77 1020.91 1021.08 1021.27 1021.47 1021.65 1021.76 1021.80 1021.73 1021.55 1021.26 1020.91 1020.50 1020.08 1019.67 1019.30 1018.97 1018.69 1018.45 1018.22 1017.99 1017.76 1017.51 1017.25 1016.99 1016.75 1016.52 1016.32 1016.15 1016.00 1015.86
1020.24 1020.56 1020.83 1021.03 1021.17 1021.27 1021.36 1021.46 1021.58 1021.74 1021.93 1022.13 1022.31 1022.44 1022.48 1022.42 1022.25 1021.96 1021.59 1021.16 1020.69 1020.23 1019.80 1019.41 1019.06 1018.74 1018.45 1018.16 1017.87 1017.57 1017.26 1016.94 1016.63 1016.34 1016.07 1015.82 1015.60 1015.39
1020.83 1021.20 1021.51 1021.74 1021.92 1022.04 1022.14 1022.24 1022.36 1022.50 1022.67 1022.85 1023.01 1023.13 1023.17 1023.10 1022.92 1022.64 1022.26 1021.81 1021.32 1020.83 1020.36 1019.91 1019.51 1019.14 1018.78 1018.44 1018.09 1017.73 1017.35 1016.97 1016.58 1016.21 1015.85 1015.52 1015.21 1014.92
1021.43 1021.84 1022.19 1022.47 1022.68 1022.83 1022.95 1023.05 1023.16 1023.28 1023.42 1023.57 1023.70 1023.79 1023.80 1023.72 1023.53 1023.24 1022.86 1022.40 1021.90 1021.39 1020.89 1020.42 1019.97 1019.55 1019.15 1018.75 1018.34 1017.90 1017.45 1016.98 1016.50 1016.03 1015.58 1015.16 1014.76 1014.40
1022.04 1022.47 1022.85 1023.16 1023.41 1023.59 1023.73 1023.83 1023.93 1024.03 1024.14 1024.24 1024.33 1024.38 1024.35 1024.24 1024.04 1023.73 1023.34 1022.88 1022.37 1021.85 1021.33 1020.83 1020.36 1019.90 1019.44 1018.98 1018.50 1017.99 1017.45 1016.89 1016.31 1015.74 1015.19 1014.68 1014.20 1013.77
1022.66 1023.09 1023.49 1023.83 1024.10 1024.30 1024.45 1024.55 1024.64 1024.71 1024.78 1024.84 1024.88 1024.87 1024.80 1024.66 1024.42 1024.09 1023.68 1023.21 1022.69 1022.16 1021.63 1021.10 1020.59 1020.09 1019.58 1019.05 1018.50 1017.90 1017.27 1016.62 1015.95 1015.28 1014.63 1014.04 1013.49 1013.01
1023.30 1023.73 1024.12 1024.47 1024.74 1024.95 1025.10 1025.20 1025.26 1025.31 1025.33 1025.34 1025.33 1025.27 1025.15 1024.95 1024.68 1024.32 1023.89 1023.40 1022.86 1022.31 1021.75 1021.19 1020.63 1020.08 1019.51 1018.92 1018.28 1017.61 1016.89 1016.14 1015.38 1014.63 1013.91 1013.25 1012.66 1012.15
1023.96 1024.37 1024.75 1025.08 1025.35 1025.55 1025.68 1025.76 1025.80 1025.81 1025.80 1025.76 1025.69 1025.58 1025.41 1025.17 1024.85 1024.45 1023.99 1023.46 1022.90 1022.31 1021.71 1021.11 1020.50 1019.89 1019.25 1018.58 1017.87 1017.12 1016.32 1015.50 1014.67 1013.85 1013.08 1012.38 1011.77 1011.25
1024.64 1025.02 1025.37 1025.67 1025.91 1026.09 1026.19 1026.25 1026.26 1026.23 1026.18 1026.10 1025.99 1025.83 1025.61 1025.33 1024.97 1024.53 1024.02 1023.46 1022.85 1022.22 1021.57 1020.91 1020.24 1019.56 1018.86 1018.12 1017.34 1016.52 1015.66 1014.78 1013.90 1013.05 1012.26 1011.54 1010.93 1010.43
1025.29 1025.63 1025.95 1026.21 1026.42 1026.56 1026.63 1026.65 1026.63 1026.58 1026.49 1026.38 1026.24 1026.04 1025.79 1025.47 1025.07 1024.60 1024.05 1023.44 1022.79 1022.10 1021.40 1020.67 1019.94 1019.19 1018.42 1017.62 1016.79 1015.92 1015.02 1014.11 1013.21 1012.36 1011.56 1010.86 1010.27 1009.79
1025.88 1026.19 1026.46 1026.69 1026.85 1026.95 1026.99 1026.98 1026.94 1026.86 1026.76 1026.63 1026.46 1026.25 1025.97 1025.63 1025.20 1024.70 1024.11 1023.47 1022.76 1022.03 1021.26 1020.48 1019.69 1018.88 1018.06 1017.21 1016.34 1015.44 1014.53 1013.62 1012.73 1011.89 1011.13 1010.46 1009.90 1009.46
1026.37 1026.65 1026.89 1027.07 1027.20 1027.26 1027.27 1027.24 1027.18 1027.09 1026.98 1026.84 1026.67 1026.45 1026.17 1025.81 1025.37 1024.84 1024.23 1023.54 1022.80 1022.02 1021.21 1020.38 1019.54 1018.69 1017.83 1016.96 1016.07 1015.17 1014.28 1013.39 1012.54 1011.74 1011.02 1010.40 1009.88 1009.47
1026.77 1027.02 1027.22 1027.37 1027.46 1027.50 1027.48 1027.44 1027.37 1027.28 1027.18 1027.05 1026.88 1026.66 1026.37 1026.01 1025.55 1025.01 1024.38 1023.67 1022.90 1022.08 1021.24 1020.38 1019.51 1018.64 1017.77 1016.90 1016.03 1015.16 1014.30 1013.46 1012.66 1011.93 1011.26 1010.68 1010.21 1009.82
1027.08 1027.31 1027.49 1027.60 1027.67 1027.68 1027.66 1027.61 1027.54 1027.46 1027.36 1027.24 1027.07 1026.85 1026.56 1026.19 1025.73 1025.17 1024.53 1023.80 1023.02 1022.18 1021.33 1020.46 1019.59 1018.72 1017.86 1017.02 1016.18 1015.36 1014.56 1013.79 1013.07 1012.40 1011.79 1011.26 1010.82 1010.45
1027.36 1027.56 1027.70 1027.80 1027.84 1027.84 1027.81 1027.76 1027.70 1027.62 1027.53 1027.41 1027.24 1027.02 1026.72 1026.34 1025.86 1025.29 1024.63 1023.90 1023.11 1022.27 1021.42 1020.56 1019.71 1018.87 1018.06 1017.26 1016.48 1015.73 1015.00 1014.31 1013.66 1013.06 1012.52 1012.04 1011.62 1011.26
1027.61 1027.79 1027.91 1027.98 1028.01 1028.01 1027.97 1027.93 1027.86 1027.79 1027.69 1027.56 1027.38 1027.14 1026.82 1026.41 1025.91 1025.32 1024.65 1023.92 1023.13 1022.31 1021.48 1020.65 1019.84 1019.05 1018.28 1017.55 1016.85 1016.17 1015.53 1014.92 1014.34 1013.81 1013.33 1012.89 1012.50 1012.14
Thickness
5710 5710 5709 5708 5708 5707 5706 5704 5700 5695 5696 5701 5705 5709 5709 5709 5708 5707 5706 5705 5704 5702 5700 5698 5696 5695 5693 5692 5691 5689 5689 5688 5687 5686 5685 5684 5684 5683
5707 5706 5705 5705 5704 5703 5703 5701 5700 5697 5694 5697 5700 5703 5704 5705 5705 5704 5703 5702 5700 5699 5697 5695 5694 5692 5691 5689 5688 5687 5686 5685 5684 5683 5682 5681 5680 5679
5703 5703 5702 5701 5700 5699 5698 5697 5696 5694 5692 5694 5695 5697 5698 5698 5698 5698 5697 5696 5695 5694 5693 5691 5689 5688 5687 5685 5684 5683 5682 5681 5680 5679 5678 5678 5677 5676
5699 5698 5697 5697 5695 5695 5693 5692 5691 5690 5689 5687 5688 5689 5690 5690 5691 5691 5690 5690 5689 5688 5687 5685 5684 5683 5681 5680 5679 5678 5676 5675 5674 5673 5673 5672 5672 5671
5694 5693 5692 5691 5689 5688 5687 5686 5685 5685 5683 5681 5681 5681 5681 5682 5682 5682 5681 5680 5680 5680 5679 5677 5676 5675 5674 5673 5672 5671 5670 5669 5668 5667 5666 5666 5665 5665
5688 5687 5686 5685 5683 5682 5681 5679 5679 5677 5675 5674 5672 5672 5671 5671 5671 5670 5670 5669 5669 5668 5668 5667 5666 5665 5664 5663 5662 5661 5660 5660 5659 5659 5658 5658 5657 5657
5681 5680 5678 5677 5676 5675 5673 5672 5671 5669 5667 5665 5663 5661 5660 5658 5657 5657 5656 5656 5656 5655 5655 5654 5653 5653 5651 5651 5650 5650 5649 5649 5649 5649 5649 5649 5648 5648
5672 5670 5669 5667 5666 5665 5664 5662 5661 5659 5657 5654 5652 5649 5647 5645 5644 5644 5642 5642 5642 5641 5640 5640 5639 5638 5637 5637 5636 5636 5636 5636 5635 5635 5636 5636 5636 5637
5662 5660 5659 5656 5655 5653 5651 5650 5648 5646 5644 5642 5638 5635 5633 5632 5631 5630 5628 5627 5625 5625 5625 5626 5625 5623 5622 5621 5621 5620 5620 5620 5620 5620 5620 5621 5622 5623
5651 5649 5647 5644 5644 5642 5640 5636 5633 5630 5629 5627 5623 5620 5618 5617 5616 5615 5613 5612 5610 5608 5608 5608 5609 5608 5607 5605 5604 5603 5603 5602 5602 5603 5604 5605 5607 5608
5639 5636 5635 5633 5631 5630 5627 5623 5619 5615 5612 5610 5607 5604 5602 5601 5600 5599 5598 5596 5594 5592 5588 5587 5588 5589 5589 5588 5586 5585 5584 5584 5584 5585 5586 5588 5589 5591
5625 5622 5621 5619 5617 5615 5612 5608 5603 5598 5596 5594 5591 5589 5586 5584 5582 5579 5577 5576 5574 5572 5569 5566 5566 5566 5569 5570 5566 5564 5564 5564 5564 5565 5566 5568 5569 5571
5613 5608 5605 5603 5602 5599 5596 5592 5587 5583 5579 5577 5574 5570 5568 5565 5562 5559 5556 5554 5552 5549 5546 5544 5544 5542 5541 5545 5546 5543 5542 5542 5544 5545 5546 5547 5548 5549
5599 5594 5590 5588 5586 5583 5579 5575 5571 5568 5564 5560 5556 5551 5548 5545 5541 5538 5536 5533 5530 5527 5524 5522 5520 5519 5518 5521 5524 5524 5522 5521 5522 5524 5525 5526 5528 5529
5585 5580 5576 5574 5571 5567 5562 5558 5555 5550 5546 5541 5536 5531 5527 5524 5522 5520 5517 5514 5511 5508 5505 5502 5499 5497 5496 5497 5500 5501 5502 5503 5502 5504 5505 5506 5508 5509
5570 5565 5561 5557 5553 5549 5544 5540 5536 5531 5526 5521 5516 5512 5509 5506 5504 5501 5498 5495 5493 5489 5485 5483 5480 5479 5479 5479 5479 5481 5482 5483 5485 5485 5487 5489 5491 5492
5555 5551 5546 5541 5536 5531 5526 5521 5517 5512 5508 5503 5498 5495 5491 5488 5485 5482 5478 5476 5474 5472 5470 5467 5464 5463 5463 5463 5465 5466 5467 5468 5468 5470 5471 5476 5478 5479
5542 5535 5529 5524 5519 5514 5509 5504 5499 5494 5489 5485 5481 5477 5474 5470 5467 5464 5461 5458 5456 5454 5453 5452 5451 5452 5453 5454 5451 5452 5454 5455 5457 5457 5459 5463 5467 5469
5526 5519 5513 5508 5503 5497 5492 5488 5482 5476 5472 5468 5464 5460 5456 5453 5450 5448 5445 5443 5441 5439 5438 5438 5438 5438 5440 5443 5444 5440 5442 5445 5446 5449 5451 5453 5456 5460
5510 5504 5498 5493 5488 5482 5477 5471 5466 5461 5457 5452 5448 5444 5440 5437 5435 5433 5431 5428 5427 5426 5426 5426 5426 5425 5425 5427 5431 5433 5433 5435 5437 5440 5443 5445 5449 5451
5495 5490 5484 5478 5473 5467 5462 5456 5451 5447 5442 5438 5434 5430 5426 5423 5421 5419 5417 5415 5414 5415 5415 5416 5416 5415 5416 5419 5422 5426 5428 5428 5428 5429 5433 5437 5442 5446
5481 5476 5470 5464 5459 5454 5448 5443 5439 5434 5429 5425 5421 5418 5414 5411 5409 5407 5406 5405 5405 5405 5405 5407 5408 5410 5411 5412 5414 5418 5421 5423 5424 5424 5426 5427 5430 5435
5468 5463 5457 5451 5447 5441 5437 5432 5427 5423 5418 5414 5410 5407 5404 5401 5399 5398 5397 5396 5396 5397 5398 5399 5401 5403 5404 5406 5408 5411 5414 5416 5419 5421 5423 5424 5425 5427